Location: Buena Vista Beach
(41.8098°N, 81.1279°W)
Time: 17:22:38
(UTC+00:00)

Cosmos 44 Rocket - Pass Details

Date: 29 October 2020
Orbit: 642 x 748 km, 65.1° (Epoch: 28 November)

Event Time Altitude Azimuth Distance (km) Brightness Sun altitude
Rises 23:06:09 0° 181° (S) 2,965 6.7 -8.8°
Reaches altitude 10° 23:08:42 10° 169° (SSE) 2,073 5.8 -9.3°
Maximum altitude 23:12:38 27° 112° (ESE) 1,293 4.2 -10.0°
Enters shadow 23:16:14 12° 58° (ENE) 1,999 5.1 -10.7°
